CANAVERAL NM East of Cape Canaveral, FL (41009)

Conditions for Thursday

Daily
Weekly
Monthly
Marine Data Graph

Current Weather/Wave Observations

Air Temperature: 82° F
Humidity: 70
Wind direction (W Dir): SE (135 - 144 Degrees)
Wind Speed (W Spd): 1.9 kts (2.2 mph)
Wind Gust (W Spd): 5.8 kts (6.7 mph)
Atmospheric Pressure (AP): 30.12 in

Updated: 12:20 PM EDT on July 18, 2019

Marine & Boating Location Search

Enter a coastal zip code for marine weather.

General Information

Location: 28.522 North -80.188 West
Buoy Type: 3-meter discus buoy
Buoy Hull: 3D86
Payload: AMPS payload
Owned by: NDBC
Windspeed: Measured by obtained from anemometer
Sea Surface: Measured by Intake

Weather and Wave Data

Time Temp Humidity Wind Dominant Wave Wind Wave Wave Swell Pressure
  Air
(°F)
Water
(°F)
  Dir Speed
(kts)
Speed
(mph)
Period
(sec)
Height
(ft)
Range
(ft)
Period
(sec)
Height
(ft)
Range
(ft)
Period
(sec)
Height
(ft)
Range
(ft)
Atmo.
(in)
Tend.
(in)
20:20 84 85 58 South 5.8 6.7 - - - - - - 30.10 -
20:30 84 85 60 SSE 7.8 8.9 - - - - - - 30.11 -
20:40 84 85 62 South 7.8 8.9 - - - - - - 30.11 -
20:50 84 85 61 South 7.8 8.9 8 1.31 exactly 1.3 - - - 8 1.64 0.82 - 2.46 30.11 -
21:10 84 85 61 SSE 7.8 8.9 - - - - - - 30.11 -
21:20 84 85 58 South 7.8 8.9 - - - - - - 30.11 -
21:30 84 85 59 South 7.8 8.9 - - - - - - 30.12 -
21:40 84 85 61 South 9.7 11.2 - - - - - - 30.13 -
21:50 84 85 63 South 7.8 8.9 8 1.31 exactly 1.3 - - - 8 1.64 0.82 - 2.46 30.12 -
22:10 84 85 66 South 7.8 8.9 - - - - - - 30.12 -
22:20 83 85 69 South 7.8 8.9 - - - - - - 30.12 -
22:30 83 85 70 South 7.8 8.9 - - - - - - 30.12 -
22:40 83 85 71 South 7.8 8.9 - - - - - - 30.12 -
22:50 84 85 68 South 7.8 8.9 8 1.31 exactly 1.3 - - - 8 1.64 0.82 - 2.46 30.12 -
23:00 84 84 68 South 7.8 8.9 - - - - - - 30.12 +0.03
23:10 84 84 69 South 7.8 8.9 - - - - - - 30.13 -
23:20 84 84 68 South 7.8 8.9 - - - - - - 30.12 -
23:30 84 84 69 SSE 9.7 11.2 - - - - - - 30.12 -
23:40 84 84 70 SSE 9.7 11.2 - - - - - - 30.12 -
23:50 83 84 73 SSE 9.7 11.2 7 1.31 exactly 1.3 - - - 7 1.64 0.82 - 2.46 30.12 -
00:10 83 84 74 South 7.8 8.9 - - - - - - 30.12 -
00:20 83 84 73 SSE 9.7 11.2 - - - - - - 30.11 -
00:30 83 84 73 SSE 7.8 8.9 - - - - - - 30.11 -
00:40 83 84 73 South 7.8 8.9 - - - - - - 30.11 -
00:50 83 84 73 SSE 7.8 8.9 8 1.64 exactly 1.6 - - - 8 1.64 0.82 - 2.46 30.10 -
01:10 83 84 70 SSE 7.8 8.9 - - - - - - 30.09 -
01:20 83 84 69 SSE 7.8 8.9 - - - - - - 30.09 -
01:30 83 84 69 SSE 9.7 11.2 - - - - - - 30.09 -
01:40 83 84 69 SSE 9.7 11.2 - - - - - - 30.08 -
01:50 83 84 70 SSE 7.8 8.9 8 1.31 exactly 1.3 - - - 8 1.64 0.82 - 2.46 30.09 -
02:00 83 84 71 SSE 7.8 8.9 - - - - - - 30.08 -0.04
02:10 83 84 70 SSE 7.8 8.9 - - - - - - 30.07 -
02:30 83 84 70 SSE 9.7 11.2 - - - - - - 30.06 -
02:40 83
-
70 SSE 9.7 11.2 - - - - - - 30.06 -
02:50 83 84 69 SSE 9.7 11.2 8 1.64 exactly 1.6 2 1.64 0.82 - 2.46 8 1.64 0.82 - 2.46 30.06 -
03:00 83 84 70 SSE 9.7 11.2 - - - - - - 30.06 -0.06
03:10 83 84 70 SSE 9.7 11.2 - - - - - - 30.06 -
03:20 83 83 69 SSE 9.7 11.2 - - - - - - 30.05 -
03:30 83
-
SSE 9.7 11.2 - - - - - - 30.05 -
03:40 83
-
70 SSE 9.7 11.2 - - - - - - 30.05 -
03:50 83 83 71 SSE 7.8 8.9 8 1.31 exactly 1.3 3 1.64 0.82 - 2.46 8 1.64 0.82 - 2.46 30.05 -
04:10 83 83 70 SSE 7.8 8.9 - - - - - - 30.05 -
04:20 83 83 70 SSE 7.8 8.9 - - - - - - 30.06 -
04:30 83 83 70 South 7.8 8.9 - - - - - - 30.06 -
04:40 83 83 68 South 7.8 8.9 - - - - - - 30.06 -
04:50 83 83 69 South 5.8 6.7 7 1.64 exactly 1.6 3 1.64 0.82 - 2.46 7 1.64 0.82 - 2.46 30.06 -
05:10 83 83 69 South 5.8 6.7 - - - - - - 30.06 -
05:30 83 83 69 SSW 5.8 6.7 - - - - - - 30.07 -
05:40 83 83 69 SSW 5.8 6.7 - - - - - - 30.07 -
05:50 83 83 70 SSW 5.8 6.7 7 1.64 exactly 1.6 3 1.64 0.82 - 2.46 7 1.64 0.82 - 2.46 30.08 -
06:10 83 83 70 SW 3.9 4.5 - - - - - - 30.09 -
06:20 83 83 70 SW 3.9 4.5 - - - - - - 30.09 -
06:30 83 83 69 SW 3.9 4.5 - - - - - - 30.09 -
06:40 83 83 69 SW 3.9 4.5 - - - - - - 30.09 -
06:50 83 83 69 SW 3.9 4.5 8 1.64 exactly 1.6 - - - 8 1.64 0.82 - 2.46 30.10 -
07:10 83 83 70 South 3.9 4.5 - - - - - - 30.10 -
07:20 83 83 69 South 3.9 4.5 - - - - - - 30.10 -
07:30 82 83 75 WSW 9.7 11.2 - - - - - - 30.11 -
07:40 82 83 73 West 9.7 11.2 - - - - - - 30.13 -
07:50 81 83 71 NW 5.8 6.7 8 1.31 exactly 1.3 - - - 8 1.64 0.82 - 2.46 30.11 -
08:20 81 83 74 WNW 7.8 8.9 - - - - - - 30.12 -
08:30 81 83 71 NW 5.8 6.7 - - - - - - 30.12 -
08:40 79 83 75 North 7.8 8.9 - - - - - - 30.12 -
08:50 80 83 73 NNW 7.8 8.9 9 1.31 exactly 1.3 - - - 9 1.64 0.82 - 2.46 30.13 -
09:00 80 83 74 North 5.8 6.7 - - - - - - 30.14 +0.05
09:10 79 83 75 NNW 5.8 6.7 - - - - - - 30.13 -
09:20 80 83 69 NW 3.9 4.5 - - - - - - 30.13 -
09:30 80 83 72 North 3.9 4.5 - - - - - - 30.12 -
09:40 80 84 71 North 5.8 6.7 - - - - - - 30.12 -
09:50 80 84 74 NNW 5.8 6.7 8 1.31 exactly 1.3 - - - 8 1.64 0.82 - 2.46 30.11 -
10:10 81 85 78 NW 3.9 4.5 - - - - - - 30.12 -
10:20 81 85 78 NW 3.9 4.5 - - - - - - 30.12 -
10:40 81 85 78 WNW 1.9 2.2 - - - - - - 30.12 -
10:50 82 85 74 WNW 1.9 2.2 8 1.31 exactly 1.3 - - - 8 1.64 0.82 - 2.46 30.13 -
11:10 82 85 74 North 1.9 2.2 - - - - - - 30.14 -
11:20 82 85 72 North 1.9 2.2 - - - - - - 30.13 -
11:30 82 85 70 - 0.0 0.0 - - - - - - 30.13 -
11:40 83 85 67 - 0.0 0.0 - - - - - - 30.14 -
12:00 83 85 67 ESE 3.9 4.5 - - - - - - 30.14 -
12:10 83 85 67 ESE 3.9 4.5 - - - - - - 30.13 -
12:20 82 85 70 SE 1.9 2.2 - - - - - - 30.12 -

Detailed Wave Spectra

Time Water Depth Wave Height Spectral Peak Period Average Wave Period Sampling Interval Wave Record
20:00 138 ft 1.18 ft 7.7 sec 4.8 sec 0.6 sec 2400 sec
21:00 138 ft 1.28 ft 7.7 sec 5.2 sec 0.6 sec 2400 sec
22:00 138 ft 1.41 ft 7.7 sec 5.6 sec 0.6 sec 2400 sec
00:00 138 ft 1.21 ft 7.1 sec 5.4 sec 0.6 sec 2400 sec
01:00 138 ft 1.54 ft 7.7 sec 4.7 sec 0.6 sec 2400 sec
04:00 138 ft 1.44 ft 7.7 sec 3.9 sec 0.6 sec 2400 sec
05:00 138 ft 1.64 ft 7.1 sec 4.0 sec 0.6 sec 2400 sec
06:00 138 ft 1.48 ft 7.1 sec 4.0 sec 0.6 sec 2400 sec
07:00 138 ft 1.48 ft 8.3 sec 4.2 sec 0.6 sec 2400 sec
08:00 138 ft 1.35 ft 7.7 sec 4.3 sec 0.6 sec 2400 sec
10:00 138 ft 1.41 ft 8.3 sec 4.4 sec 0.6 sec 2400 sec
11:00 138 ft 1.18 ft 7.7 sec 4.5 sec 0.6 sec 2400 sec